Regional Weather Roundup
Issued by NWS

Home | Current Version | Previous Version | Text Only | Print | Product List | Glossary Off
Versions: 1 2 3 4 5 6 7 8 9 10 11 12 13 14 15 16 17 18 19 20 21 22 23 24 25 26 27 28 29 30 31 32 33 34 35 36 37 38 39 40 41 42 43 44 45 46 47 48 49 50

000
ASUS43 KLOT 251602
RWRIL

ILLINOIS REGIONAL WEATHER ROUNDUP
NATIONAL WEATHER SERVICE CHICAGO/ROMEOVILLE IL
1100 AM CDT SAT APR 25 2015

NOTE: "FAIR" INDICATES FEW OR NO CLOUDS BELOW 12,000 FEET WITH NO
SIGNIFICANT WEATHER AND/OR OBSTRUCTIONS TO VISIBILITY.

* THESE STATIONS ARE NOT UNDER NWS QUALITY CONTROL. THEY ALSO MAY NOT
  REPORT WEATHER SUCH AS PRECIPITATION OR FOG.

ILZ001-002-007-009-015-016-024-251700-
NORTHWEST ILLINOIS

CITY           SKY/WX    TMP DP  RH WIND       PRES   REMARKS
MOLINE         LGT RAIN  46  43  89 NE18G26   29.68F FOG
STERLING*      CLOUDY    45  39  81 NE18G25   29.73R
$$

ILZ003-004-008-010-011-017-018-251700-
NORTH CENTRAL ILLINOIS

CITY           SKY/WX    TMP DP  RH WIND       PRES   REMARKS
ROCKFORD       CLOUDY    46  37  71 NE15      29.78F
$$

ILZ005-006-012>014-019>023-251700-
NORTHEAST ILLINOIS

CITY           SKY/WX    TMP DP  RH WIND       PRES   REMARKS
CHICAGO-OHARE  LGT RAIN  43  39  86 E12       29.78R
CHICAGO-MIDWAY LGT RAIN  46  42  86 E16       29.76R
AURORA         LGT RAIN  45  41  86 E14       29.75S FOG
WAUKEGAN       CLOUDY    42  38  85 NE16G25   29.79F
DUPAGE AIRPORT RAIN      44  41  89 E13       29.75S FOG
WHEELING       CLOUDY    43  38  82 E7        29.80R
NORTHERLY ISL    N/A     43  39  86 E15         N/A
$$

LMZ740>746-251700-
SOUTHERN LAKE MICHIGAN

STATION/POSITION SKY/WX   TEMP    WIND        PRES    VSBY  WAVE
                          AIR SEA DIR/SP/G                  HT/PER
                          (F)     (DEG/KT/KT) (MB)    (MI)  (FT/S)
HARRISON CRIB              41      80/ 18/ 21   N/A
BURNHAM HARBOR             43      70/ 15/ 19   N/A
CALUMET HARBOR             43      80/ 12/ 16   N/A
BURNS HARBOR               44     100/ 13/ 18 1008.5F
MICHIGAN CITY              43      80/ 18/ 24   N/A
MICHIGAN CITY 6N           43 44  110/ 16/ 19   N/A           2/ 4
$$

ILZ025>027-034>036-040-047-049-050-058-095>099-251700-
WEST-CENTRAL ILLINOIS

CITY           SKY/WX    TMP DP  RH WIND       PRES   REMARKS
QUINCY         CLOUDY    51  49  92 E15       29.54S FOG
$$

ILZ028>032-037-038-041>044-048-051>054-059>061-251700-
CENTRAL ILLINOIS

CITY           SKY/WX    TMP DP  RH WIND       PRES   REMARKS
DECATUR        RAIN      51  49  92 NE10      29.63R FOG
PEORIA         RAIN      48  45  89 E16G23    29.64F FOG
SPRINGFIELD    LGT RAIN  51  50  96 E13       29.60F FOG
TAYLORVILLE    NOT AVBL
$$

ILZ033-039-045-046-055>057-062-063-251700-
EAST-CENTRAL ILLINOIS

CITY           SKY/WX    TMP DP  RH WIND       PRES   REMARKS
CHAMPAIGN      RAIN      50  48  93 E16       29.61F FOG
MATTOON        CLOUDY    50  50 100 SE10      29.59S FOG
$$

ILZ079-100>102-251700-
SOUTHWEST ILLINOIS

CITY           SKY/WX    TMP DP  RH WIND       PRES   REMARKS
ALTON          CLOUDY    59  57  94 S10       29.54F FOG
BELLEVILLE     CLOUDY    61  61 100 VRB3      29.53F
CAHOKIA*       CLOUDY    62  58  86 SE7       29.52F FOG
$$

ILZ064>066-069>071-074>076-080>082-084>086-088>090-092>094-251700-
SOUTH-CENTRAL ILLINOIS

CITY           SKY/WX    TMP DP  RH WIND       PRES   REMARKS
CARBONDALE     CLOUDY    64  58  80 SW13G24   29.56F
MARION         CLOUDY    64  59  82 SW15      29.57F
MT. VERNON     CLOUDY    61  55  82 S8        29.56F
$$

ILZ067-068-072-073-078-083-087-091-251700-
SOUTHEAST ILLINOIS

CITY           SKY/WX    TMP DP  RH WIND       PRES   REMARKS
LAWRENCEVILLE  LGT RAIN  53  52  96 E9        29.61F VSB 1
ROBINSON*      TSTM      51  50  97 SE8       29.62F
$$

ABBREVIATIONS USED IN REMARKS
   TC - TEMPERATURE IN CELSIUS
  WCI - WIND CHILL INDEX
   HX - HEAT INDEX
  VSB - VISIBILITY
$$



USA.gov is the U.S. government's official web portal to all federal, state and local government web resources and services.